Theta_e
333 332 332 333 333 333 333 333 332 328 325 325 327 328 330 328 326 326 325 324 325 327 328 328 328 329 330 332 333 333 332 332 331 330 329 326 323 321 323 324 325 327 329 328 327 328 328 328 328 327 326 324 324 325 325 325 323 319 318 316 314 313 311 311 311 311 309 308 306 308 310 311 312 312 309 307 311 315 316 317 317 317 318 318 318
333 333 332 332 332 333 334 334 332 329 327 327 328 329 330 330 328 326 324 325 328 329 329 328 329 328 329 331 332 332 332 332 331 330 329 327 324 322 323 325 326 327 329 328 327 329 328 328 328 327 327 325 324 324 325 325 324 322 323 319 316 315 313 313 312 311 310 309 308 307 308 311 312 311 308 305 305 310 312 314 314 314 316 317 318
334 334 333 333 332 333 335 335 333 331 329 329 329 330 331 330 330 327 326 328 330 330 329 329 329 328 328 330 331 331 332 332 332 330 329 327 326 325 324 325 327 327 328 327 327 330 329 327 328 327 327 327 325 324 324 325 325 325 325 323 321 319 317 314 312 311 310 309 308 308 308 308 308 308 306 304 303 305 306 308 308 309 313 316 317
335 335 335 335 335 335 335 335 334 332 330 331 330 331 331 331 330 329 329 331 331 330 329 328 328 327 327 329 330 330 331 332 332 330 329 328 326 326 325 324 325 326 326 325 325 329 330 329 329 328 327 327 327 326 324 324 325 325 325 326 326 324 322 318 315 313 312 310 309 310 310 307 308 308 305 303 302 303 304 304 305 308 312 315 316
335 336 336 337 336 336 335 334 334 333 332 332 331 331 331 331 330 330 331 331 331 331 330 328 328 327 327 327 328 330 331 332 332 331 329 329 327 325 324 323 324 324 324 323 324 326 329 329 330 330 329 328 327 326 325 324 324 325 325 327 327 326 325 322 320 316 314 312 310 312 313 310 310 308 305 304 303 303 304 304 305 307 310 313 315
335 336 336 336 336 336 335 333 333 334 333 333 333 332 330 330 330 330 331 331 331 331 330 329 328 328 328 328 328 330 331 331 331 331 330 330 330 328 326 324 324 324 324 324 324 324 326 327 329 330 330 329 328 327 326 325 325 325 325 326 327 327 325 322 321 319 316 315 313 313 313 313 313 310 306 305 303 303 303 303 305 305 308 310 313
336 336 336 336 335 335 334 333 333 334 334 334 333 332 330 330 330 330 331 331 332 331 330 329 329 329 329 329 329 329 329 330 330 330 330 330 331 331 328 328 326 325 326 325 325 325 325 325 327 328 330 330 330 329 327 326 327 326 325 325 326 327 326 322 321 320 319 318 317 316 315 316 315 313 309 305 303 304 302 302 303 305 306 306 309
336 336 335 335 334 334 333 332 332 333 333 333 333 332 331 330 329 330 331 331 331 330 328 328 329 329 329 329 329 329 329 329 328 329 329 330 331 330 328 329 328 326 327 327 327 327 326 326 326 326 328 329 330 330 329 329 328 327 326 325 325 325 326 324 322 320 320 319 318 318 317 318 317 316 314 308 304 304 303 302 303 303 304 304 305
335 335 334 334 333 333 332 331 332 333 333 333 332 332 330 329 330 331 331 331 331 329 328 327 328 328 328 328 328 327 327 327 328 328 328 329 330 330 328 328 329 329 328 328 329 329 328 327 326 326 327 328 329 330 330 330 330 329 328 327 326 324 325 326 324 321 320 319 319 318 317 318 319 318 318 314 308 305 303 302 302 302 302 302 302
334 334 333 334 333 332 331 330 331 331 332 332 332 331 330 329 330 330 331 330 330 329 328 327 327 326 326 327 326 325 325 325 325 325 325 327 326 327 328 327 327 329 330 330 329 330 330 329 328 327 327 326 328 329 329 330 330 331 330 330 329 327 326 326 326 324 321 320 322 321 318 318 318 318 319 318 313 310 307 304 302 301 301 301 301
333 333 334 334 332 331 330 329 330 331 331 330 330 330 329 329 330 330 330 330 329 329 327 326 326 326 326 326 325 325 326 325 324 324 323 323 324 324 325 325 325 327 329 329 330 330 330 330 330 330 329 327 327 328 328 330 330 331 331 331 331 329 328 326 326 326 323 321 323 324 322 321 319 317 318 318 316 314 313 311 306 301 300 301 300
332 332 333 333 331 331 330 330 331 332 332 331 330 329 329 330 330 329 329 329 328 326 325 326 325 325 325 324 325 326 327 326 325 325 322 321 321 322 324 325 325 325 327 328 328 328 328 329 329 329 329 328 328 328 328 329 330 330 329 330 331 331 330 328 327 328 327 323 320 323 325 325 322 318 318 318 318 317 316 315 312 307 302 300 301
331 331 331 331 330 331 331 331 332 332 332 331 330 330 330 329 329 328 328 327 327 325 325 325 325 326 325 325 326 328 328 328 326 324 321 320 320 322 322 324 325 326 326 327 327 327 328 328 328 328 328 328 328 328 327 328 329 329 330 330 330 331 331 330 330 329 330 327 321 320 324 326 324 321 320 319 319 319 317 316 315 312 308 303 301
331 330 330 330 330 330 330 331 332 331 331 331 330 330 328 327 327 327 327 327 326 326 326 326 326 327 326 326 327 327 326 327 326 323 321 320 321 322 322 322 324 326 327 327 327 327 327 328 327 327 327 328 328 329 328 328 328 329 329 329 330 331 331 331 331 330 330 330 327 322 321 323 323 322 321 320 319 318 318 318 317 315 313 310 306
329 329 329 329 329 330 331 332 332 331 331 331 330 330 327 326 326 326 326 326 326 326 327 327 327 327 326 327 328 328 327 325 324 324 321 320 322 322 322 322 323 325 326 325 324 324 324 325 326 326 326 326 328 329 328 327 328 329 329 329 329 329 331 331 331 331 330 330 330 328 324 323 323 322 322 321 319 318 319 319 319 317 316 315 312
326 326 327 328 329 330 331 331 331 331 330 330 331 330 329 327 327 326 325 326 326 326 328 327 328 327 326 325 324 326 328 325 323 323 321 320 321 321 321 321 322 323 323 323 322 322 321 321 322 322 323 324 325 325 325 325 326 325 326 327 328 328 329 330 330 330 331 330 331 331 328 326 325 325 324 322 320 319 319 319 320 320 319 318 316
323 323 324 325 326 328 329 329 329 330 329 329 330 329 329 328 328 327 326 325 326 327 327 326 326 326 325 325 324 326 329 325 322 323 323 321 320 321 322 322 321 321 320 320 321 321 321 321 321 321 322 323 324 324 324 324 322 321 323 326 327 328 328 329 329 329 330 330 330 331 330 329 328 327 327 326 324 321 319 319 319 320 320 320 319
320 320 322 322 322 323 325 327 327 328 329 328 329 328 327 327 327 327 327 325 325 326 325 325 325 325 324 326 326 326 327 325 323 323 324 323 319 318 320 319 316 315 316 316 317 319 319 320 322 322 322 322 323 323 322 321 320 319 321 323 325 326 327 327 327 328 328 328 329 329 330 330 329 329 330 329 328 326 323 320 319 319 319 319 320
319 318 321 322 321 321 323 325 326 328 328 328 328 328 327 327 327 327 327 326 325 325 325 324 324 323 325 326 325 325 325 324 324 323 324 323 319 314 313 313 312 313 314 314 315 315 315 317 319 320 321 321 321 321 319 317 318 318 318 320 322 323 324 324 325 326 327 327 328 329 329 329 329 330 330 329 329 329 327 325 322 320 319 320 321
319 318 320 323 322 320 320 322 325 327 327 327 326 327 327 327 326 326 326 326 326 327 326 326 325 324 327 327 326 326 325 324 324 323 325 327 324 317 310 310 312 312 312 311 311 312 312 314 316 318 319 320 320 320 320 320 319 319 318 319 320 321 321 321 323 324 325 326 327 328 329 329 329 329 329 328 328 327 327 328 326 324 323 322 323
318 318 319 321 320 318 318 320 324 325 325 326 325 325 325 326 326 325 325 326 327 327 327 327 326 326 327 326 324 322 322 324 325 322 322 325 324 319 312 310 311 310 309 308 308 308 309 310 311 313 315 316 316 317 319 320 322 322 321 320 319 320 321 322 323 325 326 327 328 328 328 328 328 329 329 329 328 328 328 328 327 327 326 325 324
317 317 318 319 318 318 318 319 322 323 323 323 324 324 324 324 324 324 325 326 326 327 327 327 327 327 327 326 322 317 315 317 317 316 315 314 316 315 310 309 311 310 309 308 306 306 307 308 308 309 309 310 310 311 312 314 316 318 320 321 321 322 322 322 323 325 325 327 328 327 327 328 328 327 328 329 328 328 329 329 328 328 328 328 327
316 317 317 317 317 318 318 319 320 321 321 321 321 322 321 322 323 323 323 324 325 326 326 327 326 325 324 322 318 314 312 310 309 309 309 309 312 311 308 308 310 310 310 309 307 307 306 306 306 306 306 306 307 307 308 308 310 312 315 318 321 322 321 320 322 322 321 322 326 328 328 329 329 329 329 330 329 328 329 329 329 329 329 330 330
316 316 316 317 317 317 318 319 320 320 320 320 320 320 320 321 321 319 319 321 322 323 324 324 323 320 317 314 312 311 310 308 307 308 307 307 308 309 307 308 308 309 310 310 308 308 307 305 305 304 304 304 304 305 306 307 307 309 310 313 316 319 318 317 319 319 318 318 322 325 327 327 328 328 330 330 330 330 329 330 330 330 330 330 330
316 317 316 316 316 316 318 319 319 319 319 319 318 319 320 319 318 315 314 315 317 318 318 318 316 314 311 309 308 308 308 308 307 306 306 304 305 306 307 307 308 308 309 308 307 307 307 306 304 304 303 303 303 303 304 305 306 307 308 310 313 314 314 315 317 317 317 317 319 322 324 325 326 326 327 328 328 327 327 327 327 327 327 328 328
315 314 313 313 314 315 317 318 318 318 317 317 316 316 317 316 316 314 312 311 311 311 311 311 309 308 307 306 306 305 305 306 304 303 304 304 305 306 306 306 306 305 307 307 306 306 306 306 305 304 303 302 302 302 304 305 305 306 306 308 310 310 310 312 314 314 314 315 317 319 322 323 325 325 325 325 325 325 325 325 325 325 326 326 326
313 312 312 312 310 310 313 315 314 313 312 311 311 312 313 314 313 310 307 307 307 307 307 306 304 303 302 302 302 301 302 303 304 305 305 305 306 306 305 307 307 306 305 306 307 306 306 306 304 303 302 301 300 301 303 304 305 305 306 306 307 307 307 309 309 309 309 310 312 315 318 320 322 324 324 324 324 324 324 324 324 324 323 324 323
312 312 312 310 307 307 308 308 306 305 304 303 304 305 307 308 306 303 303 303 304 304 304 302 300 300 300 300 300 300 301 304 305 306 306 306 307 307 306 307 309 310 311 309 307 306 306 305 304 303 301 300 298 299 301 303 304 304 305 305 306 306 306 306 307 307 307 308 308 310 313 314 316 319 322 323 322 322 322 322 322 322 322 321 321
313 312 311 309 307 307 307 305 304 302 300 300 302 302 303 303 303 302 302 302 302 302 302 301 300 301 301 301 301 302 303 306 306 306 307 306 307 308 308 307 307 311 315 313 309 307 306 304 303 301 299 297 296 296 298 300 302 303 304 305 305 305 306 306 306 306 307 307 307 308 309 309 310 312 314 316 317 318 318 317 317 317 317 317 317
312 311 310 309 309 309 308 307 306 303 301 302 302 302 302 303 303 303 302 302 302 303 302 302 302 302 303 303 304 304 306 306 306 307 306 306 306 306 308 307 306 308 310 311 310 307 305 304 302 299 296 295 295 295 295 297 299 301 302 303 304 304 305 306 306 306 306 306 307 307 307 308 308 309 309 310 310 311 311 311 310 311 311 311 312
311 311 310 310 310 310 309 309 308 306 304 303 302 302 303 303 303 302 302 302 302 302 303 303 303 303 303 304 305 306 306 306 306 306 305 305 306 306 307 307 306 306 306 307 308 306 304 303 300 297 295 295 295 295 295 296 296 297 299 301 302 303 304 305 305 306 306 306 306 306 306 306 306 307 307 307 308 308 308 309 309 309 310 309 310
309 310 310 310 311 310 310 309 310 309 308 306 303 302 304 305 304 304 303 302 302 303 303 304 304 304 302 303 305 306 306 306 305 305 305 305 306 306 306 306 305 305 304 304 305 304 303 301 297 295 295 295 295 295 295 295 295 296 297 298 299 300 302 303 303 304 305 305 305 306 305 306 305 305 306 306 306 307 307 307 308 309 309 309 310
309 308 309 310 311 311 310 310 311 311 310 309 306 304 306 307 308 308 307 305 304 304 304 304 304 304 304 304 304 304 304 304 303 304 304 305 305 305 305 306 305 305 305 304 303 302 301 299 296 295 295 295 295 295 295 295 295 296 296 296 297 298 299 299 300 301 302 303 303 304 304 305 305 305 305 305 305 305 305 306 306 307 308 309 309
309 308 309 310 310 311 310 310 311 311 310 310 309 307 307 308 309 309 308 307 307 306 307 306 305 305 305 305 305 305 305 304 304 304 304 305 305 305 305 305 306 305 305 304 301 299 297 296 295 295 296 295 295 295 295 295 295 296 296 296 296 297 297 297 298 298 299 299 299 300 301 302 303 304 304 304 304 304 304 304 304 305 306 307 308
311 309 309 310 311 311 310 309 310 311 311 310 310 308 308 308 309 309 309 309 308 308 308 309 308 306 306 306 306 306 306 306 305 305 305 305 304 305 305 305 306 305 304 303 300 298 296 296 296 296 296 295 295 296 295 295 295 296 296 296 296 296 296 296 296 296 297 297 297 297 298 298 299 300 301 302 303 303 303 303 304 303 304 305 306
313 311 310 311 312 312 311 309 309 309 310 310 310 309 308 309 309 309 310 310 309 309 309 309 309 308 308 307 307 306 306 306 306 306 306 305 305 305 305 305 305 305 303 302 300 299 298 297 297 296 296 296 297 296 296 296 296 296 296 296 296 296 296 296 296 296 296 296 296 296 296 296 296 297 298 298 299 300 301 302 302 303 303 303 303
314 313 312 311 312 313 313 311 309 309 309 309 310 310 309 310 310 310 310 310 310 310 310 309 309 309 309 309 308 307 306 306 306 307 306 306 306 305 305 305 305 304 303 301 300 301 300 299 297 296 297 297 297 297 297 297 297 297 296 296 296 296 296 296 296 296 296 296 296 296 296 296 296 296 296 296 297 297 298 299 300 302 303 303 303
314 313 313 313 312 313 313 312 312 311 310 309 309 310 310 311 310 310 310 310 310 310 310 310 310 310 310 310 309 309 308 307 307 307 307 306 306 306 305 305 304 303 303 301 301 302 302 300 298 297 297 298 298 298 297 297 297 297 297 297 297 296 296 296 296 296 296 296 296 296 296 296 296 296 296 296 296 296 296 297 298 299 301 302 302
315 314 314 314 313 314 313 313 313 313 313 313 312 312 312 312 311 311 311 310 310 310 311 311 310 311 311 311 311 310 309 308 308 308 307 307 306 306 305 305 304 303 302 301 301 302 302 300 298 298 298 298 298 297 297 297 297 297 297 297 297 297 296 296 296 296 296 296 295 295 295 295 295 295 295 295 295 295 295 296 296 297 298 299 300
316 316 316 315 314 314 314 314 314 314 314 314 315 315 315 314 314 314 313 312 313 312 312 312 312 312 312 312 313 312 311 309 309 309 308 307 307 306 305 305 304 303 302 301 302 302 301 300 299 299 299 299 298 298 297 297 297 297 297 297 297 297 296 296 296 296 295 295 295 295 295 295 295 295 294 294 294 294 294 295 296 296 297 297 298
315 316 317 316 315 316 316 315 315 316 315 315 314 314 315 316 316 316 316 315 315 315 315 315 315 314 314 314 315 315 314 312 309 308 308 308 307 307 306 305 304 303 302 302 303 303 301 300 299 299 299 299 298 297 297 297 296 296 296 296 296 296 296 296 296 296 295 295 295 294 294 294 294 294 294 294 294 294 294 295 296 297 297 297 297
315 316 317 316 316 317 316 315 315 316 315 315 313 313 314 316 316 316 315 315 315 314 314 315 316 316 316 316 316 315 316 315 311 308 308 308 307 307 307 306 304 303 302 302 303 303 301 300 299 299 299 299 298 297 296 296 296 296 296 296 296 296 295 296 296 295 295 294 294 294 294 293 293 293 293 293 294 294 295 296 297 298 298 298 298
315 316 317 316 316 316 315 313 315 315 315 315 314 313 314 316 316 316 317 317 316 316 316 317 317 317 317 317 317 316 316 316 313 310 308 307 307 307 306 305 304 303 302 303 302 302 301 300 299 299 298 298 297 296 296 296 296 296 296 295 295 295 294 294 295 295 294 293 292 293 293 293 293 292 293 293 294 295 295 296 296 298 299 299 299
316 317 317 316 316 315 314 314 314 315 316 315 314 314 316 316 316 315 314 314 316 316 317 317 318 318 318 318 317 317 316 316 314 312 309 307 307 307 305 304 303 302 302 302 302 301 301 300 300 299 298 297 297 296 296 296 296 296 295 295 295 294 293 293 293 293 293 292 292 292 293 293 292 292 293 294 295 295 294 295 295 297 299 301 302
316 317 317 316 315 315 314 314 315 316 316 315 315 316 316 315 312 309 309 311 313 315 316 316 317 317 317 317 316 316 315 315 314 312 309 307 306 305 304 303 302 301 301 302 302 301 300 300 300 299 298 297 296 296 296 296 295 295 295 295 294 293 292 292 292 292 292 292 292 292 292 293 292 292 293 293 293 293 294 294 294 296 300 303 303
317 317 317 316 316 316 315 315 316 316 316 315 316 316 315 311 308 306 307 311 313 313 314 315 315 315 314 314 314 313 313 312 311 309 307 306 305 304 303 302 301 301 301 301 301 300 300 299 299 297 297 297 296 296 296 295 295 294 293 293 293 292 292 292 291 292 292 291 292 291 292 292 292 292 293 292 293 293 293 294 294 296 301 304 303
317 317 317 317 317 317 316 316 316 316 316 316 316 314 312 310 308 305 306 308 309 310 311 312 312 313 312 312 312 311 310 309 308 307 306 305 304 303 302 301 300 300 301 301 300 299 299 298 298 297 297 296 296 295 295 294 293 293 292 292 292 292 292 291 291 292 291 291 291 291 292 292 292 292 292 292 293 293 293 294 294 297 301 303 301
317 317 316 316 316 316 316 316 316 316 316 316 315 312 311 310 309 307 306 307 307 308 310 310 310 311 311 311 310 308 307 306 305 304 304 304 303 302 301 300 300 300 300 300 299 298 298 297 297 296 296 295 295 294 293 293 292 292 292 292 292 292 291 291 291 291 291 291 291 291 292 292 292 292 292 292 292 293 293 293 293 296 300 300 297
315 315 314 314 314 314 315 315 315 315 316 315 313 312 311 310 309 308 308 307 307 308 309 309 309 309 309 309 308 306 305 304 303 303 303 303 302 301 301 300 300 300 299 299 298 297 296 296 295 295 294 294 294 293 293 292 292 292 292 292 292 292 291 291 291 291 291 291 291 292 292 291 292 292 292 292 292 292 293 293 294 296 298 297 295
313 312 313 312 312 313 313 313 314 315 314 313 312 312 311 310 309 309 308 308 308 308 308 308 308 307 306 306 305 304 304 303 303 303 303 302 301 301 301 301 300 299 298 297 296 296 295 295 294 293 293 293 293 292 292 292 291 291 291 291 291 291 291 291 291 291 291 291 291 291 291 291 291 291 291 292 292 292 292 293 294 295 295 294 294
310 309 310 310 311 311 312 312 312 313 313 313 312 312 311 310 309 309 308 308 308 308 307 307 306 305 304 303 303 302 302 302 302 301 301 301 301 300 300 299 298 298 296 296 295 294 294 294 293 293 292 292 292 292 291 291 291 291 290 290 291 291 291 291 291 291 291 291 291 291 291 291 291 291 292 292 292 292 292 293 293 293 293 293 293
Wind_Speed
11 10 9 8 5 4 3 4 5 4 4 3 2 0 1 0 1 2 3 2 1 1 1 1 3 3 3 5 7 7 7 7 7 6 4 4 3 2 2 2 3 4 4 2 2 3 4 5 5 4 4 3 5 4 2 3 2 2 2 2 2 2 2 2 2 3 3 3 3 4 4 4 5 5 5 6 6 7 7 8 8 9 9 10 10
11 11 10 8 6 4 4 4 5 6 5 4 3 1 1 1 1 3 3 2 0 2 1 2 3 2 3 6 6 6 7 8 8 8 6 5 4 3 2 3 2 2 3 2 2 2 2 3 5 4 4 3 4 5 4 3 3 2 2 2 0 1 1 1 1 1 2 2 2 2 3 3 3 3 3 4 5 5 6 6 6 8 10 9 9
12 11 10 9 6 5 5 5 6 7 6 5 3 1 0 1 2 3 4 2 0 1 2 3 3 2 3 5 4 3 4 7 8 8 7 6 5 5 4 4 3 3 3 4 3 3 3 2 3 4 4 4 3 4 5 4 3 2 3 4 3 2 1 1 1 1 1 1 1 2 2 2 2 2 2 3 3 4 4 5 5 7 10 9 9
12 12 11 10 8 6 6 5 6 7 7 6 5 3 2 1 3 4 4 3 1 0 2 2 2 2 3 4 4 3 3 4 6 6 6 6 6 6 6 5 4 4 4 4 4 5 4 3 2 3 3 4 4 4 4 4 4 3 4 6 5 4 4 3 3 3 2 2 2 2 2 2 2 1 2 2 3 3 4 5 5 7 9 9 8
13 13 12 11 9 8 7 6 6 7 7 7 6 5 4 3 4 5 5 4 3 1 2 2 2 2 3 4 4 4 4 3 4 5 4 4 6 7 6 5 5 4 4 4 4 4 5 4 3 3 3 4 4 4 4 3 4 4 5 7 6 6 6 6 5 4 4 3 3 3 2 2 2 2 1 2 2 2 3 4 5 6 7 8 8
14 13 11 11 10 8 8 8 6 7 8 8 8 6 6 6 6 6 6 5 5 3 4 5 5 5 5 5 5 5 5 4 4 5 5 4 5 6 5 5 6 5 5 4 4 4 4 4 4 4 4 3 3 3 4 4 4 5 5 7 8 7 7 7 6 6 5 4 3 3 4 3 3 2 2 1 2 1 2 3 3 4 5 6 7
14 12 11 10 9 8 8 8 7 8 9 9 9 8 7 8 8 7 6 6 5 6 6 6 6 6 6 6 7 7 6 5 4 4 5 5 5 6 5 5 6 6 6 6 6 5 5 5 5 5 5 4 4 4 4 4 5 5 4 6 8 8 7 7 6 6 6 6 5 4 4 4 4 4 3 3 2 2 2 2 2 3 3 4 5
15 13 12 11 9 7 8 7 7 8 9 10 10 9 9 9 9 7 7 6 6 8 8 6 6 5 5 6 7 7 7 7 5 4 3 4 6 7 8 9 9 9 7 8 7 7 7 7 7 7 7 6 5 5 4 4 5 5 5 6 7 8 8 7 6 6 7 7 7 6 6 5 6 6 5 4 3 3 3 3 2 2 2 2 3
15 14 12 10 8 7 7 5 6 8 8 9 10 10 10 10 10 8 8 7 8 10 10 9 9 7 5 4 5 7 6 5 4 3 2 3 6 7 9 10 11 12 10 9 8 8 8 9 9 10 9 9 8 7 6 6 6 7 6 6 7 7 8 8 7 7 8 8 8 8 8 7 8 7 6 6 5 4 4 4 3 2 2 2 2
12 12 10 8 7 7 6 5 5 5 6 8 9 10 10 10 10 9 8 8 9 11 11 9 9 7 6 6 4 3 1 1 1 1 3 5 5 6 8 10 11 12 12 11 10 10 10 10 10 11 12 12 11 11 9 7 8 8 8 8 8 8 8 8 8 8 7 8 9 9 9 8 9 9 8 8 7 5 5 5 4 3 3 2 2
9 9 9 8 6 7 7 7 5 4 5 7 8 9 10 10 9 9 9 7 8 10 10 8 6 5 6 6 4 1 1 1 2 3 4 5 5 5 6 9 12 10 9 10 10 11 11 11 11 12 13 14 14 14 13 11 10 9 9 9 9 10 10 9 9 9 8 7 9 10 10 9 10 10 9 9 8 7 6 6 5 4 3 3 3
6 7 8 8 7 7 8 7 7 6 6 7 8 9 9 10 9 8 8 8 8 8 8 7 6 5 5 4 3 1 0 0 2 4 5 4 4 4 4 7 10 9 7 7 8 9 10 10 10 12 14 15 15 15 15 15 14 13 12 11 11 10 12 12 10 10 9 8 8 11 12 11 9 9 8 9 9 8 8 7 6 5 4 4 4
4 5 6 7 8 8 7 7 7 6 5 7 9 9 9 9 10 8 7 8 8 7 8 8 6 5 3 2 1 1 2 2 2 3 3 3 2 4 5 6 7 6 5 5 6 7 8 8 9 11 13 15 16 16 15 15 16 16 16 15 14 13 13 13 12 12 11 10 7 9 13 13 11 10 8 8 10 10 9 9 8 6 5 4 4
3 3 4 5 6 6 5 5 5 4 5 7 9 9 10 10 10 8 7 7 7 7 7 7 5 5 4 2 1 1 2 2 1 2 2 1 1 2 4 6 5 3 2 3 4 5 6 7 8 10 12 13 14 14 12 12 14 16 17 18 18 17 15 14 14 13 13 13 10 9 11 13 12 11 10 9 9 10 10 10 9 8 7 6 5
5 4 4 4 4 4 4 4 3 4 6 8 8 9 10 10 9 8 7 6 6 6 7 5 5 6 5 2 1 2 2 2 1 1 0 1 2 2 1 2 3 2 2 3 4 4 6 7 8 9 10 12 11 10 10 10 12 13 14 15 16 17 17 17 16 15 14 14 13 12 11 12 13 11 11 10 10 11 11 10 9 8 8 7 6
7 6 5 5 4 4 4 3 2 2 4 6 7 8 9 8 8 8 7 6 6 6 7 5 5 6 3 2 2 2 1 1 2 2 3 3 4 3 2 1 1 2 3 4 4 4 5 6 7 8 8 8 8 8 9 10 12 13 14 14 14 14 15 15 15 15 15 15 15 16 15 14 15 14 12 12 12 12 12 11 10 9 9 9 8
5 5 5 6 6 5 4 3 3 2 2 3 4 6 6 6 7 6 6 6 7 6 6 4 4 6 5 3 3 1 1 1 1 3 5 7 7 7 7 7 6 5 4 5 4 4 5 5 6 7 7 7 7 8 9 10 11 12 13 15 15 15 15 14 14 14 15 15 15 17 18 17 17 17 16 15 14 14 14 14 13 12 11 10 10
3 3 5 6 7 6 5 4 4 3 2 2 2 4 6 7 7 6 6 6 7 7 6 4 3 5 6 4 4 2 2 1 1 2 5 8 10 10 11 11 10 8 6 6 6 5 5 4 3 5 6 7 7 7 7 8 8 8 9 13 14 14 13 13 14 15 16 15 14 16 18 18 18 19 19 19 17 15 15 15 15 14 14 13 12
2 2 4 6 7 6 5 4 4 4 2 2 3 5 5 6 7 7 7 6 6 6 6 7 6 5 5 5 6 5 4 2 2 1 2 5 7 11 13 13 11 9 10 12 13 12 11 9 7 6 5 4 5 5 5 5 4 5 7 10 11 11 11 11 12 14 15 15 15 15 15 18 21 20 20 22 22 20 18 17 17 17 16 15 14
3 2 3 6 7 5 3 2 4 5 4 5 5 6 6 6 7 7 7 7 5 4 5 8 8 6 6 6 6 5 4 4 4 4 3 1 3 6 11 16 16 17 19 21 22 21 20 18 16 14 12 11 9 8 7 5 5 6 6 7 10 11 11 11 10 12 14 14 14 14 13 16 19 20 20 20 22 23 22 20 19 19 19 17 15
3 3 4 6 5 4 2 1 4 6 7 7 7 7 7 6 6 6 6 6 6 3 3 7 8 8 8 8 8 8 8 8 7 7 5 3 1 2 6 14 19 22 25 27 27 26 25 24 23 22 20 19 17 16 14 12 11 9 6 5 8 10 10 10 9 9 11 12 12 11 11 12 14 16 20 21 21 21 21 22 21 20 20 19 19
4 4 5 5 5 5 4 3 5 8 9 9 9 9 8 7 6 5 5 5 6 5 5 6 7 6 6 6 9 10 9 8 9 9 8 6 4 1 2 6 9 15 21 25 27 28 27 26 25 25 24 23 22 20 19 18 16 13 8 5 6 7 7 7 6 7 10 11 9 6 5 8 9 13 17 20 22 20 19 20 20 20 20 20 20
5 6 7 7 7 6 6 5 7 8 9 10 10 9 8 8 7 8 7 7 7 7 8 8 8 8 8 7 9 9 8 9 9 9 8 6 4 1 2 3 5 8 13 17 22 26 27 27 26 25 25 23 22 21 20 18 17 15 12 9 7 6 8 9 8 9 13 14 11 8 5 2 4 7 10 13 17 18 18 19 19 19 20 19 19
8 8 9 8 7 7 7 7 8 7 8 8 8 8 7 7 9 11 11 10 11 10 11 11 10 11 11 10 10 10 11 11 10 10 10 8 6 3 3 4 4 6 9 11 16 20 24 27 26 25 24 23 21 20 19 17 16 15 14 12 10 8 9 11 10 10 13 15 13 9 7 6 5 3 3 4 7 11 16 18 18 19 20 19 19
11 11 10 9 7 6 7 8 8 8 8 8 8 8 8 8 10 11 12 12 12 12 12 12 11 11 11 11 11 11 12 11 9 10 10 10 10 6 4 6 5 6 9 10 13 16 18 23 25 25 25 24 22 20 19 18 17 15 13 12 12 11 10 10 10 11 11 11 12 10 8 7 6 4 3 1 1 4 7 9 11 12 13 13 15
12 11 9 8 7 7 8 9 9 9 8 8 8 8 9 9 10 9 10 10 10 10 11 11 11 10 10 10 11 11 11 10 10 11 11 11 12 7 5 6 7 8 9 10 15 17 14 17 22 24 24 24 22 20 19 18 17 16 14 13 12 13 13 12 11 12 12 11 10 9 8 7 5 4 4 3 1 1 4 5 7 8 9 9 11
12 11 9 7 7 8 9 9 9 9 8 9 9 9 9 9 9 8 9 9 9 10 10 10 11 11 10 10 11 12 12 11 12 13 13 13 14 11 7 5 5 7 6 7 13 17 14 13 18 23 23 22 22 20 19 18 18 16 15 15 15 14 14 13 12 12 12 12 10 9 8 8 6 4 3 3 2 2 3 5 6 6 7 8 9
12 11 9 8 8 9 10 10 10 10 10 10 10 10 10 9 9 10 10 10 9 10 11 11 12 12 11 11 12 14 14 14 14 14 14 14 14 14 13 9 6 3 3 5 7 11 14 14 16 21 21 20 20 19 17 17 18 17 15 15 16 16 15 13 12 12 11 11 10 9 8 7 7 5 4 3 4 4 4 5 6 6 7 7 8
14 12 11 9 9 9 10 10 11 11 11 11 11 11 11 10 11 11 11 11 10 11 11 11 12 12 12 12 13 15 15 14 14 13 13 13 12 12 13 13 11 5 2 3 3 5 11 14 15 18 20 19 19 18 16 16 17 16 16 16 16 16 15 14 13 13 12 12 11 10 9 8 8 7 6 5 5 5 6 6 7 8 8 8 9
14 13 12 11 10 9 9 9 9 10 10 10 10 10 10 10 11 11 12 12 12 12 11 11 12 12 13 13 13 14 14 13 12 11 10 10 9 9 9 10 12 9 5 3 2 3 8 11 14 16 18 19 19 18 17 16 15 14 14 15 15 15 14 14 15 15 15 14 14 13 12 11 9 9 8 7 6 6 7 7 8 8 9 9 9
13 13 12 12 11 10 9 8 7 7 8 8 9 9 9 9 10 11 12 11 12 13 12 11 11 11 12 13 12 12 12 10 9 8 8 8 7 8 8 8 9 10 9 6 3 3 6 9 11 14 16 16 17 17 17 16 15 14 13 13 13 13 13 13 14 14 14 15 15 15 14 14 12 11 10 10 8 8 8 8 8 9 9 9 10
12 13 13 12 11 11 10 9 7 7 6 6 7 8 7 7 8 8 9 9 9 10 10 10 10 10 11 12 12 11 10 8 7 6 6 7 7 8 8 8 8 9 9 8 5 3 5 6 9 13 14 14 16 18 18 17 16 15 14 13 12 12 12 12 12 12 13 13 13 14 14 14 14 13 12 12 11 10 9 9 9 9 9 9 10
12 13 13 12 11 11 10 9 8 7 7 6 6 7 6 6 6 6 6 6 5 6 7 6 7 8 9 10 10 10 8 7 6 5 5 5 6 7 7 6 8 8 8 8 7 5 4 5 8 13 13 13 16 19 19 19 18 16 15 14 13 13 13 13 12 12 11 12 12 12 12 13 13 13 13 13 12 12 11 11 10 9 9 9 9
13 13 13 13 12 11 11 11 10 9 9 8 7 7 6 5 5 5 5 4 4 4 4 4 5 6 6 6 6 7 7 6 5 4 4 4 4 5 5 5 6 7 7 8 7 6 6 6 9 13 14 14 17 19 20 20 19 18 18 17 16 16 16 15 14 13 13 12 12 12 12 12 13 13 13 13 13 13 12 12 12 11 10 9 9
14 14 14 14 13 11 11 11 11 10 10 10 10 8 7 7 6 5 5 4 4 4 4 4 4 5 5 5 4 4 5 4 3 3 2 2 2 2 3 3 5 6 7 8 8 8 8 8 9 13 14 15 17 19 20 20 19 19 20 19 19 20 20 19 18 16 15 14 14 14 14 14 13 13 13 13 13 14 14 13 13 13 12 11 10
18 17 16 15 15 13 12 12 12 11 10 11 11 10 9 9 9 8 7 6 6 6 6 6 6 6 6 6 5 5 5 5 4 3 3 2 2 0 1 2 3 4 5 7 9 9 10 9 9 12 14 15 16 19 20 20 19 20 21 20 21 23 23 23 23 20 17 16 16 16 17 17 17 16 15 14 14 14 14 14 14 14 14 13 12
18 19 18 17 16 15 13 12 11 12 12 12 11 11 11 11 12 12 11 10 10 10 9 9 9 9 9 9 8 8 7 7 7 7 6 5 4 3 1 1 1 2 4 6 8 9 10 11 9 10 13 14 16 18 20 21 21 22 23 22 22 25 26 26 25 21 18 19 20 20 21 21 20 19 18 16 15 14 14 14 14 15 15 16 15
15 16 16 15 14 13 10 7 7 8 10 11 12 12 11 12 14 15 15 14 13 13 13 12 12 12 13 13 12 12 12 11 10 10 9 8 7 5 4 2 1 1 2 4 7 9 10 10 9 10 12 14 16 17 19 21 22 23 26 25 24 27 28 29 28 22 19 21 24 25 26 26 25 23 21 20 18 17 16 16 15 15 15 16 16
12 13 14 13 12 12 10 8 8 10 12 12 11 11 11 12 14 17 17 17 16 16 15 15 15 15 15 16 16 16 16 16 14 13 12 11 9 7 6 4 3 2 1 3 5 8 8 8 8 10 12 13 15 16 17 19 19 22 26 28 28 30 31 31 29 23 20 23 27 30 31 30 28 26 24 23 21 20 19 18 17 16 15 16 16
10 13 15 15 13 10 9 10 12 13 13 13 12 14 14 14 16 18 19 18 18 18 18 18 18 18 18 19 19 20 20 20 19 17 15 14 12 10 8 6 5 3 1 1 4 6 7 7 7 8 10 12 14 15 17 18 19 20 22 23 25 29 31 32 29 23 22 26 30 34 34 32 31 28 26 25 24 23 21 18 17 16 15 15 16
20 19 19 18 17 15 12 11 15 17 15 13 13 16 18 18 18 19 18 19 19 19 19 19 19 20 21 21 22 22 22 22 22 21 19 17 15 13 11 9 7 6 3 1 3 5 6 6 6 7 10 11 12 14 16 17 17 17 18 18 20 23 28 32 29 23 23 28 34 38 36 32 30 28 26 26 26 23 19 16 15 16 15 15 15
27 26 24 22 21 19 15 15 21 23 20 18 19 21 21 19 17 17 18 18 19 19 19 19 19 20 20 21 21 22 22 23 23 23 22 20 18 15 12 10 9 8 6 3 3 4 5 5 6 7 9 10 10 11 13 14 14 16 17 19 20 22 25 28 28 25 25 29 36 39 36 32 28 25 26 26 24 19 15 14 15 15 15 14 13
27 28 26 23 23 22 21 24 26 26 24 23 23 23 22 19 18 18 16 15 14 15 16 17 17 17 17 17 18 19 20 21 21 23 23 22 19 16 13 10 9 8 6 5 4 4 4 6 6 7 7 9 9 9 10 13 14 15 17 18 19 21 22 20 20 24 27 29 31 34 34 30 25 24 26 24 19 16 14 14 14 15 15 14 11
28 28 24 22 24 24 25 27 25 24 25 23 21 22 21 18 17 14 11 10 11 12 13 14 15 16 16 16 16 16 17 18 19 20 22 21 18 16 13 10 8 8 7 6 5 5 6 7 8 8 8 8 8 8 10 12 14 15 17 18 19 19 19 17 16 22 26 26 25 27 30 28 23 23 24 19 16 16 16 16 14 14 15 13 10
24 23 21 21 22 23 24 25 24 24 24 22 21 20 17 13 9 7 7 8 9 9 10 11 12 14 14 15 15 14 14 15 16 17 19 19 18 15 12 11 10 9 7 6 5 6 7 8 9 9 8 8 8 9 10 11 13 16 18 19 20 19 18 18 19 22 24 21 19 21 26 26 22 20 20 19 18 18 19 18 14 13 13 11 8
20 19 19 19 21 22 22 22 22 21 21 21 20 15 10 5 2 4 5 5 5 5 6 6 7 8 9 10 11 11 11 12 13 14 15 18 18 15 12 11 10 8 6 6 6 7 8 9 9 9 8 8 8 8 9 11 12 14 16 18 19 18 18 18 19 21 21 18 16 16 19 22 21 18 19 21 20 19 19 16 12 11 10 7 6
18 16 16 18 18 18 18 18 18 19 19 17 13 10 8 3 2 3 3 3 4 4 5 6 7 7 7 7 8 8 9 10 10 10 14 16 15 13 12 11 9 8 7 7 7 7 8 8 8 7 7 7 7 8 10 12 13 13 14 15 15 16 17 18 19 21 19 17 17 14 13 16 20 19 20 22 20 19 17 13 10 10 7 4 6
15 15 16 17 16 15 16 16 16 16 14 12 12 10 6 1 1 2 3 4 4 5 6 7 8 8 8 7 6 5 6 6 8 10 12 12 11 10 10 9 8 8 7 6 6 5 5 5 5 5 6 7 9 10 11 12 13 13 14 14 15 15 16 17 19 19 18 18 19 14 12 15 19 19 20 21 20 19 17 11 9 9 6 5 9
13 14 15 14 13 12 12 13 13 12 13 13 12 9 5 2 1 1 2 4 5 6 7 7 8 8 8 6 5 3 2 5 8 9 8 8 8 8 8 8 7 6 5 5 5 4 4 4 5 6 7 8 9 10 10 11 11 13 14 15 16 16 16 15 14 15 18 21 18 12 11 15 18 19 20 20 19 18 16 11 7 7 7 10 13
13 13 13 12 11 10 10 10 11 11 12 11 10 8 5 4 2 1 1 2 3 4 5 5 6 6 5 4 2 1 2 4 5 6 6 6 6 6 6 6 6 5 4 4 4 4 5 5 6 6 7 8 9 9 10 10 11 12 13 15 16 16 16 15 14 16 21 19 14 11 13 16 18 20 19 18 18 16 11 7 7 9 11 14 15
14 13 12 12 11 11 10 9 9 10 10 9 9 7 5 4 3 2 1 1 1 1 2 2 2 2 2 2 2 2 2 3 3 3 3 3 3 3 4 4 4 3 3 3 4 4 5 6 7 7 8 8 9 10 10 11 11 12 13 14 15 16 17 17 17 16 13 10 11 15 17 17 17 18 17 15 15 12 6 6 13 17 16 16 17
Wind_Direction
245 241 239 237 238 252 269 276 266 252 255 263 260 284 56 48 226 197 174 176 145 18 10 159 174 168 165 170 163 162 174 186 196 207 232 253 249 219 179 170 168 169 188 200 183 201 205 211 223 237 246 197 177 185 202 246 252 191 166 126 109 93 92 110 119 116 107 104 105 106 104 103 102 97 96 98 100 101 100 102 102 103 105 102 99
246 244 242 243 246 256 270 280 269 248 246 259 261 266 61 76 193 190 179 188 341 13 47 155 164 138 164 186 183 180 189 196 203 210 223 243 246 234 209 199 207 193 210 238 192 198 235 225 225 235 246 246 205 190 195 236 266 227 234 260 199 90 56 47 145 158 150 134 120 117 116 114 113 106 102 103 105 104 107 108 104 113 117 107 102
246 246 248 252 252 260 274 279 266 243 238 246 242 239 121 128 183 179 179 188 334 28 86 135 162 115 137 181 187 177 190 209 218 220 227 242 245 239 234 226 231 232 240 266 239 205 249 263 241 241 243 255 247 220 207 208 230 244 263 274 277 289 305 312 290 247 214 191 169 149 140 138 133 131 120 109 112 109 107 108 107 119 121 114 110
248 246 248 256 258 267 278 274 261 240 231 234 229 231 227 216 197 187 190 200 229 89 94 123 171 132 131 166 174 163 169 206 223 228 230 239 248 245 242 242 247 252 253 268 257 217 230 263 266 265 262 256 246 244 242 219 215 225 256 267 271 292 297 288 287 284 270 252 226 189 175 181 169 155 146 126 119 117 112 109 112 121 120 117 116
252 248 247 254 258 264 271 265 256 236 229 227 222 225 225 231 223 210 211 213 228 219 133 135 162 157 151 158 168 172 171 188 217 232 226 225 246 248 244 252 256 262 267 266 262 233 227 237 239 258 275 276 258 248 256 252 235 227 244 260 262 280 297 292 283 283 280 272 257 225 214 220 209 197 176 149 132 126 122 115 118 123 123 124 123
250 248 246 252 254 253 259 261 252 236 232 227 221 220 222 230 233 230 224 217 225 216 172 153 154 158 154 153 163 173 180 193 214 230 239 237 241 241 234 247 250 253 270 274 277 273 258 249 237 245 263 279 281 261 255 255 256 248 244 256 262 272 293 298 285 279 278 270 269 252 238 236 233 230 222 194 169 161 140 127 126 125 129 134 133
247 245 248 252 249 244 255 260 245 233 231 225 221 219 219 225 226 229 226 220 214 198 183 168 166 166 153 145 146 153 167 187 204 224 245 252 247 247 232 228 242 250 260 273 284 288 287 284 272 261 262 271 280 274 265 248 248 260 258 257 267 274 287 302 291 276 271 262 263 264 249 238 240 242 234 229 210 195 186 164 154 138 141 146 146
244 247 250 250 245 244 255 255 236 230 230 224 221 219 219 220 219 220 221 222 205 178 165 164 178 175 153 145 146 152 163 173 188 207 233 246 242 254 256 250 250 252 255 263 274 283 286 288 289 285 278 275 277 279 279 261 242 251 266 260 265 275 281 289 288 278 269 261 262 262 255 244 244 250 237 230 225 214 211 196 189 177 172 172 165
240 243 245 243 242 247 250 242 231 229 225 220 218 217 217 216 214 218 223 220 198 172 159 173 194 189 172 168 155 148 153 158 170 196 234 247 236 248 268 275 263 249 248 255 259 270 278 282 287 289 287 283 280 279 278 275 261 252 257 254 253 269 277 274 272 278 271 259 265 268 264 255 249 250 239 235 237 229 226 209 200 205 207 207 194
232 234 235 232 231 234 232 230 232 228 220 217 216 216 215 215 214 215 218 215 199 181 173 189 202 193 187 198 189 150 128 140 197 247 267 266 260 258 270 294 291 262 248 251 251 256 264 271 279 283 285 285 283 282 278 275 272 264 260 255 249 252 266 275 266 270 273 255 257 269 272 265 258 254 241 242 246 240 236 221 210 210 213 217 209
225 225 225 221 217 216 216 222 234 238 239 231 224 219 214 214 215 213 207 198 191 184 182 197 209 199 195 207 221 259 318 301 309 310 308 291 284 280 271 288 296 282 261 258 258 260 263 267 271 274 277 278 279 280 280 277 273 272 270 267 260 248 255 275 268 262 272 258 247 258 271 273 267 262 248 246 250 246 242 233 226 219 215 225 218
224 223 220 213 205 202 206 217 227 233 240 241 234 223 215 212 213 212 201 182 172 173 177 183 187 194 208 223 234 247 258 5 324 316 332 335 304 287 275 272 278 282 281 276 275 276 278 277 274 271 269 267 266 268 271 275 276 276 275 271 268 259 256 265 264 259 263 262 248 246 258 270 272 269 257 247 246 244 244 243 242 234 229 235 228
208 212 208 204 198 196 205 217 225 226 227 232 228 216 209 207 204 200 195 185 172 164 165 167 166 173 191 208 217 256 297 329 332 321 334 349 313 270 254 247 255 270 281 284 288 293 298 296 288 282 276 270 264 263 266 270 274 277 277 274 271 268 261 259 258 258 258 265 267 245 247 258 263 267 266 252 245 245 245 244 244 243 245 248 241
149 154 159 173 179 183 194 206 214 208 202 211 216 212 206 203 198 187 182 183 175 165 164 167 164 149 139 134 105 36 357 352 329 310 329 320 214 223 243 246 250 258 279 307 310 315 322 318 309 303 300 291 277 271 275 281 287 288 286 283 280 277 273 265 260 260 258 259 265 255 250 256 257 257 262 256 247 246 246 243 244 249 253 254 250
117 112 108 117 132 144 151 160 173 173 183 198 207 210 204 201 200 191 182 175 170 176 181 179 160 131 105 82 75 55 42 38 79 145 81 84 151 155 209 249 253 257 290 334 343 344 339 328 321 314 309 304 291 284 289 303 313 312 304 299 293 287 285 280 271 268 269 267 265 259 255 260 262 258 254 253 249 248 248 247 246 249 256 259 256
114 109 108 110 110 117 128 138 153 164 183 195 206 214 207 206 210 205 199 186 177 186 195 196 170 143 111 68 64 57 59 12 43 100 100 90 93 79 66 49 334 316 319 325 326 324 319 315 315 314 314 313 310 306 303 312 322 322 317 313 306 297 295 295 288 279 276 276 272 264 258 259 263 265 260 252 249 249 250 252 253 254 256 260 259
118 116 126 133 126 125 131 137 140 144 174 189 207 217 204 193 196 198 199 200 202 201 203 211 177 159 170 153 86 56 231 279 36 74 74 78 71 54 48 48 43 32 5 345 331 319 309 305 302 301 309 315 320 320 317 322 330 330 320 308 302 296 296 304 303 291 284 282 279 272 266 260 256 262 266 261 255 252 252 253 257 259 259 258 259
114 119 143 146 136 131 130 129 126 122 139 162 181 189 183 175 172 175 180 191 206 207 204 215 189 162 172 151 101 122 197 178 138 78 62 70 68 59 55 52 47 39 29 22 20 19 11 360 331 308 303 304 312 321 327 337 345 347 332 316 309 302 299 305 302 295 295 296 291 281 273 262 253 253 258 259 260 257 254 255 258 262 263 258 253
113 118 147 152 144 137 135 136 135 126 135 148 142 147 157 166 167 170 179 187 204 210 199 196 190 161 144 124 110 129 163 152 135 130 82 69 66 63 57 52 45 39 47 52 55 59 57 55 48 36 19 353 340 338 340 354 1 350 342 335 331 324 317 314 306 302 304 301 296 293 283 266 256 253 252 253 257 259 256 256 257 261 264 260 251
132 135 153 155 145 137 142 161 154 139 132 132 126 124 131 147 163 172 184 194 198 202 188 181 183 173 145 131 127 129 128 120 109 112 125 98 49 47 52 62 67 67 70 70 69 69 68 65 63 60 57 53 47 39 27 21 8 352 342 331 330 339 337 324 313 310 312 306 295 292 290 279 268 261 259 257 258 260 258 256 256 257 259 257 253
163 166 168 161 152 152 167 189 165 149 138 131 127 125 130 139 155 171 181 190 187 176 162 164 167 170 158 137 126 117 104 101 100 95 95 96 102 342 42 68 75 73 72 71 69 68 68 68 66 65 63 60 58 55 51 45 35 28 25 349 332 337 334 322 318 320 327 322 301 282 279 285 282 267 259 257 256 255 254 251 251 252 253 251 252
179 177 176 171 170 175 173 153 146 143 136 131 129 130 135 137 140 154 161 171 176 166 149 149 149 149 149 137 123 115 103 95 91 86 85 89 105 145 44 68 78 72 66 65 64 63 63 65 64 62 60 58 56 55 54 53 50 45 44 34 9 1 353 347 352 3 10 1 340 322 279 267 274 264 253 253 256 256 254 252 251 250 252 252 254
182 177 173 168 164 166 166 150 141 140 135 131 132 132 131 128 123 122 124 130 141 144 139 138 137 127 123 123 114 109 105 99 89 86 91 95 106 118 53 73 95 76 66 64 61 58 58 57 57 56 54 53 51 50 51 51 50 44 35 31 31 24 18 20 26 33 32 25 14 16 13 316 288 276 261 258 260 257 255 259 257 253 254 257 256
172 170 166 161 158 157 160 156 147 145 144 141 139 138 133 126 118 113 111 114 118 121 123 124 125 120 114 109 103 98 95 94 89 85 87 93 102 103 56 69 92 70 67 72 62 55 52 49 49 49 47 46 45 44 45 44 44 41 31 23 20 16 12 16 19 23 31 32 28 26 20 21 27 347 294 275 264 254 253 258 261 258 256 258 259
166 165 162 159 160 163 163 159 154 150 148 147 141 135 133 127 118 112 107 107 110 111 114 118 118 113 108 103 98 93 88 84 81 82 85 86 87 93 80 73 83 73 69 71 65 59 52 44 42 43 42 42 41 40 41 39 39 38 31 20 13 13 14 12 6 2 11 26 31 32 27 27 39 40 30 50 200 250 260 261 263 266 265 267 270
166 164 162 163 170 173 169 163 160 159 155 151 141 131 131 129 123 119 111 109 113 113 114 117 113 105 103 101 95 92 90 87 83 82 85 80 73 82 108 88 74 73 72 67 61 56 50 41 37 37 37 38 38 39 40 40 40 39 37 33 25 19 16 10 5 3 4 10 15 20 23 26 31 31 32 44 66 279 289 285 279 281 284 285 286
171 169 169 174 178 174 172 169 164 162 156 150 146 143 144 143 136 129 120 119 121 116 112 112 108 102 101 102 100 99 98 96 92 86 82 77 70 70 91 107 80 60 57 63 60 51 44 39 34 32 33 34 34 36 39 42 42 41 42 45 43 37 29 23 19 19 19 18 16 10 9 12 14 10 5 6 358 323 300 295 289 291 294 293 292
181 180 181 182 177 168 164 162 155 150 146 141 139 144 149 148 142 132 123 123 120 113 111 109 104 102 103 104 104 104 104 102 96 90 84 80 74 67 68 81 94 77 33 43 55 47 39 35 31 29 28 29 31 32 35 42 44 43 45 47 47 45 42 40 36 33 31 31 29 23 15 12 12 8 349 330 323 314 298 289 284 281 282 282 284
188 187 185 181 175 168 162 155 150 147 145 142 140 142 145 144 140 133 127 126 121 115 116 115 108 105 106 107 106 106 108 106 99 94 90 83 81 75 68 69 77 95 102 39 39 41 36 30 27 25 23 23 26 27 30 37 41 43 46 47 47 45 44 45 45 44 41 39 39 36 32 24 18 15 6 347 328 316 303 293 285 279 276 274 273
194 190 186 184 178 175 169 161 156 152 150 150 148 147 147 145 141 136 133 131 127 122 123 122 116 112 112 112 112 112 112 111 105 99 94 88 84 83 79 73 73 83 107 107 58 45 41 32 26 22 18 19 23 25 28 32 34 36 40 44 45 43 42 43 46 49 49 48 48 47 46 42 35 29 23 12 355 337 323 313 304 294 288 284 280
200 195 192 190 186 185 182 175 170 164 160 158 157 154 151 148 144 139 137 136 132 128 128 128 124 122 121 119 121 123 121 118 112 101 95 94 92 89 90 86 77 78 92 105 90 43 43 37 27 22 19 20 22 25 29 31 30 29 30 35 39 38 37 39 40 42 45 46 47 48 48 48 46 42 38 32 23 8 352 338 328 317 305 295 288
212 207 202 200 197 196 194 190 187 184 178 170 165 164 160 153 149 142 139 140 136 130 129 131 131 130 129 128 129 130 130 127 118 107 102 100 98 99 100 95 87 81 82 89 96 85 65 43 27 26 27 25 25 27 29 31 32 30 27 27 28 26 27 29 29 29 31 31 32 34 35 36 37 36 34 32 29 23 14 3 352 341 328 313 299
222 218 212 209 208 208 208 209 208 207 205 198 186 183 180 170 163 155 148 146 145 138 133 133 137 141 139 135 133 132 131 130 125 118 113 110 106 104 103 94 87 80 68 71 83 91 78 49 30 31 32 30 29 29 28 29 31 29 28 28 26 24 22 20 16 14 14 13 12 12 13 14 15 16 17 16 16 14 12 8 3 357 349 337 321
226 226 222 216 216 219 220 222 221 220 219 214 209 206 204 202 191 182 175 168 170 174 167 157 151 156 161 155 143 138 138 134 128 127 122 119 119 109 101 85 73 68 53 52 64 67 59 43 30 32 33 31 30 30 28 28 29 28 27 29 29 28 24 19 14 10 8 6 4 2 359 358 355 354 355 355 356 357 356 355 355 354 354 351 345
227 227 225 220 220 225 228 230 229 226 224 222 224 225 225 231 231 219 213 207 208 218 217 210 197 187 191 195 182 165 167 166 154 153 152 140 141 109 92 67 52 54 42 37 44 51 47 36 25 27 30 29 28 28 26 26 27 25 24 25 26 25 23 19 15 13 12 10 8 7 3 359 354 348 343 340 339 339 339 338 338 338 341 343 345
224 222 223 223 222 226 231 234 233 231 229 227 231 238 243 252 258 253 249 247 247 252 252 249 244 237 232 227 220 210 203 211 218 220 226 221 223 228 86 63 41 44 36 27 31 38 38 33 28 25 24 25 25 22 19 19 21 20 19 18 17 16 16 15 13 12 13 12 9 8 6 4 360 355 349 342 336 332 329 327 324 323 324 327 332
219 217 220 222 222 226 230 235 239 239 239 236 236 243 249 257 266 268 266 265 266 268 267 265 264 261 261 257 249 238 228 229 232 233 235 236 234 234 215 171 49 35 26 20 23 25 24 24 27 22 17 17 18 16 13 11 11 12 11 11 11 8 6 8 9 9 8 6 4 1 360 359 357 356 354 350 344 338 332 325 318 313 312 314 317
217 214 217 221 222 222 223 238 264 270 265 259 252 250 254 260 267 271 272 272 273 274 274 274 274 273 274 275 270 259 250 246 244 241 238 235 232 229 222 214 208 4 12 19 21 17 13 16 17 14 11 9 9 10 9 7 7 5 3 3 3 1 360 1 3 4 2 360 357 355 353 353 352 352 352 350 347 343 339 333 324 315 307 305 307
215 216 221 224 220 219 223 242 278 298 294 284 277 272 272 275 276 276 276 274 273 274 276 277 276 276 277 280 278 271 264 260 256 252 245 239 236 232 228 226 219 226 348 26 23 13 9 11 9 4 5 4 2 3 4 5 5 3 1 358 354 353 354 355 356 357 355 352 350 348 348 348 349 349 349 348 347 344 343 339 332 324 314 305 302
234 235 230 225 221 228 238 244 259 272 273 276 283 283 282 284 285 282 279 277 277 276 276 276 275 274 275 277 279 275 271 266 262 257 252 246 239 229 225 228 229 232 235 39 20 8 2 359 358 354 353 353 354 354 356 0 3 1 1 357 350 347 346 347 350 352 347 345 343 342 343 345 345 346 346 346 346 345 345 345 339 332 324 315 306
242 242 232 228 231 237 241 249 254 251 249 261 273 274 279 284 286 285 283 281 281 279 277 276 274 273 272 272 273 274 273 270 263 257 253 249 243 235 230 228 229 233 230 249 347 353 348 339 336 336 337 341 347 349 349 354 356 352 349 349 346 344 341 341 344 346 342 340 339 338 340 343 343 343 345 346 346 347 348 351 348 340 334 325 315
231 236 231 231 234 232 229 238 248 245 239 243 251 257 269 279 282 285 285 280 277 274 272 272 269 269 269 267 268 271 274 272 264 256 251 247 243 238 236 235 233 234 233 246 297 323 322 312 309 315 322 327 337 342 340 341 342 339 340 342 342 340 340 340 340 339 337 338 337 335 336 340 342 342 344 346 348 351 354 354 351 346 340 332 324
224 231 228 227 227 226 226 229 237 240 235 235 241 249 261 271 277 283 282 274 270 268 267 269 270 272 273 271 272 272 274 275 269 258 249 244 239 233 230 234 236 235 239 249 268 291 290 281 284 290 297 307 318 324 325 327 330 333 336 337 337 338 340 340 333 328 331 337 336 332 331 337 342 341 342 349 354 355 354 349 345 345 342 336 332
218 221 220 220 220 223 227 228 233 238 236 235 241 251 261 268 274 279 275 268 269 269 271 273 276 279 280 279 278 275 275 277 275 264 251 239 230 224 222 223 223 227 238 250 264 277 271 264 270 275 276 286 298 306 313 319 324 327 329 330 332 332 332 329 317 316 327 336 337 331 328 332 340 340 342 352 358 350 345 343 338 339 342 343 345
213 213 214 218 218 221 225 228 235 239 237 239 250 259 263 263 266 273 274 275 276 277 280 282 282 283 285 286 286 285 283 281 278 269 250 229 215 211 211 213 217 225 238 255 274 280 271 266 268 269 268 275 286 297 307 314 319 322 323 323 325 325 323 321 315 316 326 337 338 331 324 326 337 342 341 346 347 342 342 343 338 335 341 350 5
210 213 218 220 220 222 225 231 238 241 242 249 256 255 243 230 268 306 295 293 300 308 310 308 304 302 302 302 302 301 298 291 282 265 236 214 204 204 208 213 220 229 244 261 272 270 265 265 267 266 267 275 286 298 307 313 317 320 319 319 322 322 320 317 315 318 325 335 341 331 315 321 336 341 336 339 340 339 341 343 338 335 340 359 26
210 217 222 224 225 227 231 237 241 245 248 250 241 216 195 184 9 357 346 344 345 349 353 353 350 344 335 330 325 317 307 293 273 239 212 203 203 207 212 217 226 237 246 255 259 261 263 265 266 269 277 288 300 309 313 317 320 320 318 318 319 319 316 314 314 318 322 331 339 328 300 313 334 333 330 337 339 337 340 343 334 330 339 22 30
215 220 222 227 230 232 234 236 237 238 232 215 195 184 180 174 10 23 27 20 13 9 9 9 9 6 359 351 346 335 306 267 224 203 201 206 210 214 218 223 233 241 247 253 259 266 271 273 277 286 294 303 311 315 318 321 322 321 319 316 318 317 313 311 312 316 321 328 334 324 291 305 328 328 323 332 335 332 336 340 329 324 336 360 354
207 209 210 212 213 213 214 214 210 203 192 184 184 186 178 169 216 323 19 23 18 12 10 10 11 10 6 2 3 355 280 221 202 200 211 219 221 225 229 232 237 243 248 260 270 276 283 292 301 307 308 311 315 317 322 324 323 322 318 315 318 316 310 308 307 309 315 321 328 324 297 302 321 324 319 324 328 326 328 333 330 324 322 324 327
174 175 176 174 171 172 176 178 178 180 183 187 191 191 179 175 203 240 59 35 20 15 13 10 7 9 14 24 39 61 194 195 199 209 217 221 229 236 237 237 241 246 249 262 274 285 297 306 313 316 316 318 319 319 322 322 319 319 315 313 315 314 308 303 301 304 310 315 323 325 307 303 316 322 320 320 319 316 320 327 323 315 308 308 314
158 156 159 159 157 159 166 173 178 185 193 197 194 191 184 174 171 162 123 64 35 28 12 3 5 25 43 77 100 112 149 166 178 194 199 211 232 239 243 245 243 239 247 267 284 295 305 311 315 318 319 320 319 317 315 313 311 311 308 307 310 312 310 306 304 306 307 305 315 321 312 305 311 317 319 321 318 313 307 298 307 311 308 306 309